Location: Bucharest
(44.4268°N, 26.1025°E)
Time: 00:35:13
(UTC+03:00)

CUBESAT XI-V - Pass Details

Date: 29 June 2022
Orbit: 667 x 690 km, 98.1° (Epoch: 07 August)

Event Time Altitude Azimuth Distance (km) Brightness Sun altitude
Exits shadow 01:29:19 - 105° (ESE) 2,473 ? -22.3°
Reaches altitude 10° 01:30:46 10° 92° (E) 2,111 ? -22.3°
Maximum altitude 01:33:09 14° 60° (ENE) 1,842 ? -22.3°
Drops below altitude 10° 01:35:32 10° 29° (NNE) 2,111 ? -22.2°
Sets 01:38:44 0° 5° (N) 3,027 ? -22.2°
